Tracking 19575 objects as of 18-Feb-2019
HD Live streaming from Space Station
objects crossing your sky now

INSAT 3A

Track INSAT 3A now!
INSAT 3A is classified as:


NORAD ID: 27714
Int'l Code: 2003-013A
Perigee: 35,849.3 km
Apogee: 35,997.4 km
Inclination: 2.5 °
Period: 1,442.7 minutes
Semi major axis: 42294 km
RCS: 22.0529 m2 (large)
Launch date: April 9, 2003
Source: India (IND)
Launch site: FRENCH GUIANA (FRGUI)

12 C-band, 6 extended C-band, 6 Ku-band for voice, video and data transmission to West Asia, East Asia, India; augment present INSAT capacity for communication and meteorological services.
aabbcc
Your satellite tracking list
Your tracking list is empty




NASA's NSSDC Master Catalog

Two Line Element Set (TLE):
1 27714U 03013A   19048.87679477 -.00000342 +00000-0 +00000-0 0  9995
2 27714 002.4714 084.6355 0017508 246.3472 272.4896 00.99811080058019
Source of the keplerian elements: AFSPC